DW2770 Cefalu IT current weather conditions

sailwx.info

Wind from 225 at 7 knots gusting 12

Air temperature 15.0° C
Dewpoint 9.4° C

Last reported at 2014-Dec-21 03:48 UTC.
Time now 2014-Dec-21 04:44 UTC

Location: N 38°02' E 014°02'.
View on Google Maps.

See reports from other nearby stations

  
Tides and Currents Weather Stations Pressure Air Temp Water Temp Dewpoint Dewpoint Depression Visibility Wind Speed Wind Dir Waves Ship Positions
date/time (UTC)wind fromknots sea level pressurealtimeterstation pressurevisibilityair tempwater tempwave heightnotes
2014-Dec-21 03:48 225 7 gusting 12 15.0
2014-Dec-21 03:38 202 6 gusting 12 15.0
2014-Dec-21 03:28 214 10 gusting 12 15.0
2014-Dec-21 03:18 225 9 gusting 12 15.0
2014-Dec-21 03:08 225 7 gusting 10 15.0
2014-Dec-21 02:58 236 8 gusting 10 15.0
2014-Dec-21 02:48 225 5 gusting 6 15.0
2014-Dec-21 02:38 202 5 gusting 6 15.0
2014-Dec-21 02:28 213 6 gusting 8 15.0
2014-Dec-21 02:18 225 8 gusting 10 15.0
2014-Dec-21 02:08 225 6 gusting 10 15.0
2014-Dec-21 01:58 206 8 gusting 10 15.0
2014-Dec-21 01:48 158 4 gusting 6 15.0
2014-Dec-21 01:38 202 4 gusting 6 15.0
2014-Dec-21 01:28 212 4 gusting 6 15.0
2014-Dec-21 01:18 180 6 gusting 6 15.0
2014-Dec-21 01:08 202 6 gusting 7 15.0
2014-Dec-21 00:58 202 5 gusting 8 15.0
2014-Dec-21 00:48 202 8 gusting 11 15.0
2014-Dec-21 00:38 225 9 gusting 11 14.4
2014-Dec-21 00:28 191 8 gusting 11 14.4
2014-Dec-21 00:18 225 6 gusting 6 14.4
2014-Dec-21 00:08 202 4 gusting 7 14.4
2014-Dec-20 23:58 213 6 gusting 6 14.4
2014-Dec-20 23:48 202 6 gusting 8 14.4
2014-Dec-20 23:38 202 5 gusting 6 14.4
2014-Dec-20 23:28 202 3 gusting 6 14.4
2014-Dec-20 23:18 225 4 gusting 4 14.4
2014-Dec-20 23:08 202 3 gusting 6 14.4
2014-Dec-20 22:58 202 5 gusting 6 14.4
2014-Dec-20 22:48 202 4 gusting 5 14.4
2014-Dec-20 22:38 202 4 gusting 6 14.4
2014-Dec-20 22:28 219 6 gusting 7 14.4
2014-Dec-20 22:18 225 6 gusting 7 15.0
2014-Dec-20 22:08 225 6 gusting 10 15.0
2014-Dec-20 21:58 216 6 gusting 10 15.0
2014-Dec-20 21:48 225 5 gusting 7 15.0
2014-Dec-20 21:38 202 8 gusting 12 15.0
2014-Dec-20 21:28 222 9 gusting 12 15.0
2014-Dec-20 21:18 225 11 gusting 12 15.6
2014-Dec-20 21:08 248 8 gusting 13 15.6
2014-Dec-20 20:58 233 12 gusting 13 15.0
2014-Dec-20 20:48 224 5 gusting 7 15.6
2014-Dec-20 20:38 248 4 gusting 8 15.6
2014-Dec-20 20:28 225 4 gusting 6 15.6
2014-Dec-20 20:18 202 3 gusting 10 15.6
2014-Dec-20 20:08 270 8 gusting 10 15.6
2014-Dec-20 19:58 225 5 gusting 7 15.6
2014-Dec-20 19:48 225 6 gusting 8 15.6
2014-Dec-20 19:38 248 6 gusting 13 15.6
2014-Dec-20 19:28 231 6 gusting 13 15.6
2014-Dec-20 19:18 219 6 gusting 8 15.0
2014-Dec-20 19:08 202 4 gusting 7 15.0
2014-Dec-20 18:58 210 7 gusting 7 15.6
2014-Dec-20 18:48 225 2 gusting 6 15.6
2014-Dec-20 18:38 225 5 gusting 8 15.6
2014-Dec-20 18:28 228 8 gusting 10 15.6
2014-Dec-20 18:18 246 6 gusting 6 15.6
2014-Dec-20 18:08 202 4 gusting 6 15.6
2014-Dec-20 17:58 202 6 gusting 6 15.0
2014-Dec-20 17:48 202 4 gusting 6 15.0
2014-Dec-20 17:38 202 5 gusting 5 15.0
2014-Dec-20 17:28 202 5 gusting 6 15.0
2014-Dec-20 17:18 202 1 gusting 5 15.0
2014-Dec-20 17:08 202 4 gusting 5 15.0
2014-Dec-20 16:58 202 15.0
2014-Dec-20 16:48 225 1 gusting 1 15.0
2014-Dec-20 16:38 202 0 gusting 0 15.0
2014-Dec-20 16:28 202 0 gusting 1 15.0
2014-Dec-20 16:18 180 15.0
2014-Dec-20 16:08 180 15.0
2014-Dec-20 15:58 202 15.0
2014-Dec-20 15:48 135 15.0
2014-Dec-20 15:38 112 15.6
2014-Dec-20 15:28 095 15.6
2014-Dec-20 15:18 068 15.6
2014-Dec-20 15:09 068 15.6
2014-Dec-20 14:58 068 15.6
2014-Dec-20 14:48 068 16.1
2014-Dec-20 14:38 068 16.1
2014-Dec-20 14:28 068 16.1
2014-Dec-20 14:18 068 16.1
2014-Dec-20 14:08 090 16.1
2014-Dec-20 13:59 084 1 gusting 1 16.7
2014-Dec-20 13:48 045 1 gusting 1 16.7
2014-Dec-20 13:39 112 0 gusting 2 16.7
2014-Dec-20 13:28 068 0 gusting 2 16.7
2014-Dec-20 13:18 047 0 gusting 1 17.2
2014-Dec-20 13:08 180 1 gusting 1 17.2
2014-Dec-20 12:58 202 1 gusting 2 16.7
2014-Dec-20 12:48 292 0 gusting 2 17.2
2014-Dec-20 12:38 315 1 gusting 4 17.2
2014-Dec-20 12:28 279 17.2
2014-Dec-20 12:19 252 1 gusting 4 16.7
2014-Dec-20 12:09 248 2 gusting 4 16.7
2014-Dec-20 11:38 225 2 gusting 5 16.1
2014-Dec-20 11:28 225 2 gusting 2 16.1
2014-Dec-20 11:18 202 2 gusting 2 16.1
2014-Dec-20 11:09 270 0 gusting 1 16.1
2014-Dec-20 10:58 225 1 gusting 4 16.7
2014-Dec-20 10:48 228 4 gusting 4 16.7
2014-Dec-20 10:38 248 2 gusting 2 16.7
2014-Dec-20 10:28 225 2 gusting 2 16.1
2014-Dec-20 09:38 068 0 gusting 1 15.6
2014-Dec-20 09:28 068 1 gusting 1 15.6
2014-Dec-20 09:18 225 15.6
2014-Dec-20 09:08 225 0 gusting 1 15.6
2014-Dec-20 08:58 230 1 gusting 1 15.0
2014-Dec-20 08:48 228 15.0
2014-Dec-20 08:38 225 1 gusting 2 14.4
2014-Dec-20 08:28 180 14.4
2014-Dec-20 08:18 180 14.4
2014-Dec-20 08:08 180 13.9
2014-Dec-20 07:59 180 0 gusting 2 13.9
2014-Dec-20 07:48 202 0 gusting 1 13.3
2014-Dec-20 07:38 158 0 gusting 1 12.8
2014-Dec-20 07:28 180 12.8
2014-Dec-20 07:19 180 2 gusting 6 12.8
2014-Dec-20 07:09 158 4 gusting 6 12.8
2014-Dec-20 06:59 192 4 gusting 6 12.8
2014-Dec-20 06:49 202 6 gusting 6 12.2
2014-Dec-20 06:39 158 2 gusting 6 12.2
2014-Dec-20 06:29 188 2 gusting 5 12.2
2014-Dec-20 06:19 180 3 gusting 5 12.2
2014-Dec-20 06:09 180 2 gusting 4 12.2
2014-Dec-20 05:59 191 2 gusting 5 12.2
2014-Dec-20 05:49 158 2 gusting 4 12.2
2014-Dec-20 05:39 180 2 gusting 4 12.2
2014-Dec-20 05:29 170 2 gusting 5 12.2
2014-Dec-20 05:19 180 2 gusting 6 12.2
2014-Dec-20 05:09 180 1 gusting 5 12.2
2014-Dec-20 04:59 180 3 gusting 6 12.2
2014-Dec-20 04:49 158 2 gusting 6 12.2
2014-Dec-20 04:39 180 6 gusting 6 12.2
2014-Dec-20 04:29 180 5 gusting 5 12.8
2014-Dec-20 04:19 202 1 gusting 4 12.8
2014-Dec-20 04:09 180 12.8
2014-Dec-20 03:59 202 2 gusting 2 12.8
2014-Dec-20 03:49 180 12.2
2014-Dec-20 03:39 158 0 gusting 4 12.2
2014-Dec-20 03:29 180 1 gusting 6 12.2
2014-Dec-20 03:19 180 0 gusting 2 12.2
2014-Dec-20 03:09 202 2 gusting 4 12.8
2014-Dec-20 02:59 202 3 gusting 4 12.8
2014-Dec-20 02:49 180 4 gusting 5 13.3
2014-Dec-20 02:39 202 3 gusting 4 13.3
2014-Dec-20 02:29 202 2 gusting 4 13.3
2014-Dec-20 02:19 202 1 gusting 2 13.3
2014-Dec-20 02:09 202 2 gusting 4 13.3
2014-Dec-20 01:59 202 13.9
2014-Dec-20 01:49 180 2 gusting 4 13.9
2014-Dec-20 01:39 202 4 gusting 6 14.4
2014-Dec-20 01:29 216 6 gusting 6 13.9
2014-Dec-20 01:19 202 5 gusting 7 13.9
2014-Dec-20 01:09 202 6 gusting 8 13.9
2014-Dec-20 00:59 202 6 gusting 11 13.9
2014-Dec-20 00:49 202 8 gusting 13 13.9
2014-Dec-20 00:39 202 12 gusting 13 13.9
2014-Dec-20 00:29 210 7 gusting 8 13.9
2014-Dec-20 00:19 202 5 gusting 10 13.9
2014-Dec-20 00:09 202 6 gusting 6 13.9
2014-Dec-19 23:59 183 6 gusting 8 13.9
2014-Dec-19 23:49 180 9 gusting 11 13.9
2014-Dec-19 23:39 202 10 gusting 10 13.9
2014-Dec-19 23:29 184 8 gusting 8 13.9
2014-Dec-19 23:19 225 5 gusting 7 13.9
2014-Dec-19 23:09 202 6 gusting 12 13.9
2014-Dec-19 22:59 183 4 gusting 10 13.9
2014-Dec-19 22:49 202 4 gusting 6 13.9
2014-Dec-19 22:39 225 4 gusting 6 13.9
2014-Dec-19 22:29 223 5 gusting 7 13.9
2014-Dec-19 22:19 225 7 gusting 7 13.9
2014-Dec-19 22:09 180 4 gusting 8 13.9
2014-Dec-19 21:59 225 3 gusting 6 13.9
2014-Dec-19 21:49 202 2 gusting 6 13.9
2014-Dec-19 21:40 202 5 gusting 6 13.9
2014-Dec-19 21:29 202 4 gusting 5 13.9
2014-Dec-19 21:19 202 5 gusting 5 13.9
2014-Dec-19 21:10 202 4 gusting 4 13.3
2014-Dec-19 20:59 202 4 gusting 4 13.3
2014-Dec-19 20:49 202 2 gusting 2 12.8
2014-Dec-19 20:39 202 1 gusting 1 12.8
2014-Dec-19 20:29 197 12.8
2014-Dec-19 20:19 180 4 gusting 6 12.8
2014-Dec-19 20:09 180 2 gusting 2 12.2
2014-Dec-19 19:59 202 1 gusting 5 12.8
2014-Dec-19 19:49 135 3 gusting 5 12.8
2014-Dec-19 19:39 180 4 gusting 5 12.8
2014-Dec-19 19:30 202 4 gusting 6 12.8
2014-Dec-19 19:20 202 6 gusting 6 12.8
2014-Dec-19 19:10 202 6 gusting 6 12.8
2014-Dec-19 19:00 196 2 gusting 4 12.8
2014-Dec-19 18:50 202 3 gusting 6 12.8
2014-Dec-19 18:40 198 6 gusting 6 12.8
2014-Dec-19 18:30 199 2 gusting 6 12.8
2014-Dec-19 18:20 180 6 gusting 6 12.8
2014-Dec-19 18:10 202 2 gusting 4 13.3
2014-Dec-19 18:00 180 4 gusting 5 13.3
2014-Dec-19 17:50 180 4 gusting 6 13.3
2014-Dec-19 17:40 199 2 gusting 6 13.3
2014-Dec-19 17:30 202 3 gusting 5 13.3
2014-Dec-19 17:20 202 2 gusting 2 13.3
2014-Dec-19 17:10 201 13.3
2014-Dec-19 17:00 202 13.9
2014-Dec-19 16:40 199 2 gusting 2 13.9
2014-Dec-19 16:30 202 0 gusting 1 13.9
2014-Dec-19 16:20 202 14.4
2014-Dec-19 16:10 143 14.4
2014-Dec-19 16:00 202 15.0
2014-Dec-19 15:50 248 15.0
2014-Dec-19 15:40 202 0 gusting 1 15.0
2014-Dec-19 15:30 180 0 gusting 1 15.0
2014-Dec-19 15:20 112 15.6
2014-Dec-19 15:10 165 15.6
2014-Dec-19 15:00 206 15.6
2014-Dec-19 14:50 202 0 gusting 1 15.6
2014-Dec-19 14:40 225 15.6
2014-Dec-19 14:30 200 0 gusting 2 15.6
2014-Dec-19 14:20 112 0 gusting 1 15.6
2014-Dec-19 14:10 198 16.1
2014-Dec-19 14:00 225 1 gusting 4 16.1
2014-Dec-19 13:50 315 4 gusting 6 16.1
2014-Dec-19 13:40 225 3 gusting 4 16.1
2014-Dec-19 13:30 289 1 gusting 4 16.7
2014-Dec-19 13:20 248 3 gusting 6 16.7
2014-Dec-19 13:10 287 4 gusting 6 16.1
2014-Dec-19 12:49 225 4 gusting 6 16.1
2014-Dec-19 12:39 225 6 gusting 7 15.6
2014-Dec-19 12:29 225 5 gusting 7 15.6
2014-Dec-19 12:19 240 2 gusting 5 15.6
2014-Dec-19 12:09 225 1 gusting 2 15.6
2014-Dec-19 11:59 248 1 gusting 4 15.6
2014-Dec-19 11:49 248 2 gusting 6 15.0
2014-Dec-19 11:39 248 4 gusting 6 15.0
2014-Dec-19 11:29 270 1 gusting 5 15.6
2014-Dec-19 11:19 223 2 gusting 7 15.6
2014-Dec-19 11:09 315 1 gusting 5 15.6
2014-Dec-19 10:59 270 4 gusting 5 15.0
2014-Dec-19 10:49 262 15.0
2014-Dec-19 10:39 225 2 gusting 4 15.0
2014-Dec-19 10:29 225 2 gusting 4 15.0
2014-Dec-19 10:19 298 2 gusting 6 15.0
2014-Dec-19 10:09 225 4 gusting 6 15.6
2014-Dec-19 09:59 248 1 gusting 4 15.6
2014-Dec-19 09:49 292 4 gusting 4 16.1
2014-Dec-19 09:39 225 5 gusting 5 15.6
2014-Dec-19 09:29 202 2 gusting 2 15.6
2014-Dec-19 09:19 202 2 gusting 5 15.6
2014-Dec-19 09:09 202 3 gusting 4 15.6
2014-Dec-19 08:59 248 2 gusting 5 15.0
2014-Dec-19 08:49 244 2 gusting 4 15.0
2014-Dec-19 08:39 225 2 gusting 2 15.0
2014-Dec-19 08:29 225 2 gusting 4 15.0
2014-Dec-19 08:19 222 1 gusting 4 15.0
2014-Dec-19 08:09 225 2 gusting 4 14.4
2014-Dec-19 07:59 181 4 gusting 4 14.4
2014-Dec-19 07:49 202 2 gusting 4 13.9
2014-Dec-19 07:39 180 1 gusting 2 13.3
2014-Dec-19 07:29 180 2 gusting 5 13.3
2014-Dec-19 07:19 202 2 gusting 5 12.8
2014-Dec-19 07:09 180 2 gusting 4 13.3
2014-Dec-19 06:59 202 2 gusting 4 13.3
2014-Dec-19 06:49 180 4 gusting 4 13.3
2014-Dec-19 06:38 202 2 gusting 2 12.8
2014-Dec-19 06:28 180 1 gusting 1 12.8
2014-Dec-19 06:18 180 12.8
2014-Dec-19 06:08 189 13.3
2014-Dec-19 05:58 202 2 gusting 4 13.3
2014-Dec-19 05:48 202 2 gusting 5 13.9
2014-Dec-19 05:38 202 5 gusting 5 13.9
2014-Dec-19 05:28 202 5 gusting 6 13.9
2014-Dec-19 05:18 225 2 gusting 6 13.9
2014-Dec-19 05:08 202 2 gusting 6 13.9
2014-Dec-19 04:58 202 3 gusting 5 13.9
2014-Dec-19 04:48 202 4 gusting 4 13.9
2014-Dec-19 04:38 202 3 gusting 6 13.9
2014-Dec-19 04:28 202 4 gusting 6 14.4
2014-Dec-19 04:18 202 4 gusting 6 13.9
2014-Dec-19 04:08 225 2 gusting 5 13.9